Regional Weather Roundup
Issued by NWS

Home | Current Version | Previous Version | Text Only | Print | Product List | Glossary Off
Versions: 1 2 3 4 5 6 7 8 9 10 11 12 13 14 15 16 17 18 19 20 21 22 23 24 25 26 27 28 29 30 31 32 33 34 35 36 37 38 39 40 41 42 43 44 45 46 47 48 49 50

819
ASUS44 KJAN 271903
RWRMS

MISSISSIPPI HOURLY WEATHER ROUNDUP
NATIONAL WEATHER SERVICE JACKSON MS
200 PM CDT WED AUG 27 2014

NOTE: "FAIR: INDICATES FEW OR NO CLOUDS BELOW 12,000 FEET WITH NO
SIGNIFICANT WEATHER AND/OR OBSTRUCTIONS TO VISIBILITY.

MSZ001>002-007>008-010>013-018>021-025>028-034>036-272000-
NORTHWEST MISSISSIPPI

CITY           SKY/WX    TMP DP  RH WIND       PRES   REMARKS
CLARKSDALE     FAIR      91  68  46 CALM      30.07S HX  95
CLEVELAND      FAIR      91  67  45 NW3       30.04F HX  95
GREENWOOD      MOSUNNY   92  64  39 N6        30.05F HX  93
GREENVILLE     SUNNY     93  62  35 CALM      30.04F HX  93
GRENADA        FAIR      91  59  33 E6        30.06S HX  90
OLIVE BRANCH   PTSUNNY   88  66  48 E6        30.08F HX  90
OXFORD         PTSUNNY   86  64  48 N5        30.09F
TUNICA         CLEAR     90  64  43 E3        30.07F HX  91
$$

MSZ003>006-009-014>017-022>024-029>033-037>039-272000-
NORTHEAST MISSISSIPPI

CITY           SKY/WX    TMP DP  RH WIND       PRES   REMARKS
BELMONT        MOCLDY    89  66  47 N5        30.09F HX  91
COLUMBUS AFB   SUNNY     90  61  38 VRB5      30.06F HX  90
CORINTH        FAIR      88  64  45 VRB5      30.08F
GOLDN TRIANGLE MOSUNNY   90  63  40 N9        30.07F HX  90
STARKVILLE     FAIR      88  59  37 N3        30.06F
TUPELO         SUNNY     91  60  35 VRB7      30.07F HX  90
$$

MSZ040-058-272000-
CENTRAL MISSISSIPPI

CITY           SKY/WX    TMP DP  RH WIND       PRES   REMARKS
JACKSON INTL   MOSUNNY   92  62  36 W5        30.05F HX  92
JACKSON HAWKNS   N/A     92  63  38 VRB6      30.05F HX  93
MERIDIAN KEY   MOSUNNY   94  55  26 NW10G16   30.04F HX  92
MERIDIAN NAS   MOSUNNY   92  58  31 VRB5      30.05F HX  91
RAYMOND        FAIR      91  86  84 E3        30.05F HX 122
VICKSBURG      SUNNY     93  66  40 VRB7      30.03F HX  96
$$

MSZ059>079-272000-
SOUTH MISSISSIPPI

CITY           SKY/WX    TMP DP  RH WIND       PRES   REMARKS
BROOKHAVEN     FAIR      90  70  51 CALM      30.06F HX  95
COLUMBIA       FAIR      93  68  43 MISG      30.01F HX  97
HATTIESBURG    MOSUNNY   91  66  43 VRB5      30.03F HX  93
MCCOMB         PTSUNNY   90  68  48 E7        30.03F HX  94
NATCHEZ        MOSUNNY   88  72  58 NE5       30.04S HX  94
PINE BELT      MOSUNNY   95  64  36 CALM      30.05F HX  97
$$

MSZ080>082-272000-
COASTAL MISSISSIPPI

CITY           SKY/WX    TMP DP  RH WIND       PRES   REMARKS
BAY ST LOUIS   MOSUNNY  N/A N/A N/A SE7       30.02S
BILOXI         PTSUNNY   89  74  60 S14       30.02S HX  98
PASCAGOULA     LGT RAIN  85  73  67 SE9       30.02F HX  91
GULFPORT       MOSUNNY   89  71  55 SE20      30.01F HX  95
$$



USA.gov is the U.S. government's official web portal to all federal, state and local government web resources and services.